• Join FlightAware (Why Join?)
  • Login
  • US Flag 
11:10PM EST


 

Airport Tracker/Info


-or-


 

Live Flight TrackerFlight Track Log ✈ LXJ536 ✈ 09-Apr-2012 ✈ KRDU - KORL

Flight Track Log - Related Links

Times and Time Zones

All times are in EDT time to prevent confusion due to time zone crossing. See the LXJ536 flight status page for this flight to view local times or setup timezone preferences in your user account.

Time Position Orientation Groundspeed Altitude Reporting Facility
EDT Latitude Longitude Course Direction KTS MPH feet Rate Location/Type
05:51PM 35.8417 -78.8103 188° South 203 234 2,800  Level Washington Center
05:52PM 35.7683 -78.8225 160° South 264 304 6,100 2,459 Climbing Washington Center
05:53PM 35.7042 -78.7944 151° Southeast 269 310 7,800 2,400 Climbing Washington Center
05:54PM 35.6447 -78.7536 160° South 292 336 10,500 3,214 Climbing Washington Center
05:55PM 35.5747 -78.7228 174° South 292 336 13,800 3,630 Climbing Washington Center
05:56PM 35.4708 -78.7086 173° South 335 386 17,700 3,000 Climbing Washington Center
05:57PM 35.3708 -78.6944 200° South 385 443 19,900 2,471 Climbing Washington Center
05:58PM 35.2528 -78.7458 205° Southwest 406 467 22,600 2,850 Climbing Washington Center
05:59PM 35.1469 -78.8053 205° Southwest 414 476 25,600 2,975 Climbing Washington Center
06:00PM 35.0408 -78.8644 205° Southwest 420 483 28,600 2,579 Climbing Washington Center
06:01PM 34.9369 -78.9236 204° Southwest 427 491 30,800 1,920 Climbing Washington Center
06:03PM 34.7308 -79.0353 206° Southwest 417 480 34,200 1,759 Climbing Jacksonville Center
06:04PM 34.6181 -79.1008 207° Southwest 439 505 35,900 1,650 Climbing Jacksonville Center
06:05PM 34.4972 -79.1742 205° Southwest 453 521 37,500 1,650 Climbing Jacksonville Center
06:06PM 34.3803 -79.2394 204° Southwest 453 521 39,200 1,900 Climbing Jacksonville Center
06:07PM 34.2714 -79.2969 205° Southwest 453 521 41,300 1,600 Climbing Jacksonville Center
06:08PM 34.1625 -79.3592 204° Southwest 443 510 42,400 850 Climbing Jacksonville Center
06:09PM 34.0536 -79.4186 202° Southwest 432 497 43,000 300 Climbing Jacksonville Center
06:10PM 33.9403 -79.4731 205° Southwest 432 497 43,000  Level Jacksonville Center
06:11PM 33.8272 -79.5375 204° Southwest 444 511 43,000  Level Jacksonville Center
06:12PM 33.7081 -79.6019 204° Southwest 458 527 43,000  Level Jacksonville Center
06:13PM 33.5947 -79.6636 204° Southwest 458 527 43,000  Level Jacksonville Center
06:14PM 33.4817 -79.7250 204° Southwest 453 521 43,000  Level Jacksonville Center
06:15PM 33.3661 -79.7864 203° Southwest 453 521 43,000  Level Jacksonville Center
06:16PM 33.2528 -79.8450 205° Southwest 453 521 43,000  Level Jacksonville Center
06:17PM 33.1417 -79.9058 203° Southwest 453 521 43,000  Level Jacksonville Center
06:18PM 33.0261 -79.9642 204° Southwest 453 521 43,000  Level Jacksonville Center
06:19PM 32.9353 -80.0117 210° Southwest 453 521 43,000  Level Jacksonville Center
06:20PM 32.8161 -80.0919 209° Southwest 453 521 43,000  Level Jacksonville Center
06:21PM 32.7111 -80.1619 194° South 448 516 43,000  Level Jacksonville Center
06:22PM 32.5847 -80.2003 193° South 448 516 43,000  Level Jacksonville Center
06:23PM 32.4581 -80.2336 193° South 461 531 43,000 -50 Level Jacksonville Center
06:24PM 32.3314 -80.2692 194° South 471 542 42,900  Descending Jacksonville Center
06:25PM 32.2069 -80.3047 193° South 471 542 43,000 50 Climbing Jacksonville Center
06:26PM 32.0822 -80.3400 195° South 466 536 43,000  Level Jacksonville Center
06:27PM 31.9600 -80.3778 194° South 466 536 43,000  Level Jacksonville Center
06:28PM 31.8353 -80.4131 193° South 466 536 43,000  Level Jacksonville Center
06:29PM 31.7108 -80.4481 189° South 466 536 43,000  Level Jacksonville Center
06:30PM 31.5797 -80.4733 197° South 462 532 43,000 -700 Level Jacksonville Center
06:31PM 31.4636 -80.5156 194° South 462 532 41,600 -1,950 Descending Jacksonville Center
06:32PM 31.3411 -80.5503 194° South 462 532 39,100 -2,450 Descending Jacksonville Center
06:33PM 31.2186 -80.5847 192° South 457 526 36,700 -2,500 Descending Jacksonville Center
06:34PM 31.0939 -80.6169 194° South 451 519 34,100 -2,550 Descending Jacksonville Center
06:35PM 30.9692 -80.6539 195° South 451 519 31,600 -2,550 Descending Jacksonville Center
06:36PM 30.8406 -80.6933 194° South 467 537 29,000 -2,600 Descending Jacksonville Center
06:37PM 30.7117 -80.7300 193° South 473 544 26,400 -2,450 Descending Jacksonville Center
06:38PM 30.5889 -80.7617 193° South 468 539 24,100 -1,200 Descending Jacksonville Center
06:39PM 30.4725 -80.7933 194° South 456 525 24,000 -50 Descending Jacksonville Center
06:40PM 30.3522 -80.8272 194° South 448 516 24,000  Level Jacksonville Center
06:41PM 30.2336 -80.8611 193° South 443 510 24,000 -150 Level Jacksonville Center
06:42PM 30.1150 -80.8922 194° South 443 510 23,700 -1,150 Descending Jacksonville Center
06:43PM 30.0008 -80.9258 195° South 438 504 21,700 -2,250 Descending Jacksonville Center
06:44PM 29.8886 -80.9594 193° South 427 491 19,200 -2,400 Descending Jacksonville Center
06:45PM 29.7742 -80.9903 193° South 427 491 16,900 -2,300 Descending Jacksonville Center
06:46PM 29.6683 -81.0186 194° South 415 478 14,600 -2,200 Descending Jacksonville Center
06:47PM 29.5642 -81.0494 190° South 399 459 12,500 -1,832 Descending Jacksonville Center
06:48PM 29.4394 -81.0756 194° South 359 413 10,600 -1,550 Descending Jacksonville Center
06:49PM 29.3708 -81.0958 195° South 336 387 9,400 -1,211 Descending Jacksonville Center
06:50PM 29.2958 -81.1186 190° South 318 366 8,400 -850 Descending Jacksonville Center
06:51PM 29.2106 -81.1367 189° South 295 339 7,700 -1,100 Descending Jacksonville Center
06:52PM 29.1356 -81.1500 192° South 287 330 6,200 -1,350 Descending Jacksonville Center
06:53PM 29.0608 -81.1681 192° South 275 316 5,000 -431 Descending Jacksonville Center
06:55PM 28.9333 -81.2000 221° Southwest 272 313 5,000 -251 Level Orlando TRACON
06:56PM 28.8833 -81.2500 240° Southwest 254 292 4,300 -500 Descending Orlando TRACON
06:57PM 28.8500 -81.3167 240° Southwest 257 296 4,000 -500 Descending Orlando TRACON
06:58PM 28.8167 -81.3833 229° Southwest 261 300 3,300 -500 Descending Orlando TRACON
06:59PM 28.7667 -81.4500 221° Southwest 255 293 3,000 -150 Descending Orlando TRACON
07:00PM 28.7167 -81.5000 204° Southwest 253 291 3,000  Level Orlando TRACON
07:01PM 28.6500 -81.5333 192° South 252 290 3,000 -150 Level Orlando TRACON
07:02PM 28.5833 -81.5500 139° Southeast 250 288 2,700 -476 Descending Orlando TRACON
07:03PM 28.5333 -81.5000 139° Southeast 230 265 2,000 -347 Descending Orlando TRACON
07:04PM 28.5000 -81.4667 74° East 197 227 2,000 -365 Level Orlando TRACON
07:05PM 28.5167 -81.4000 69° East 187 215 1,300 -762 Descending Orlando TRACON
07:06PM 28.5333 -81.3500 69° East 153 176 400 -818 Descending Orlando TRACON